Location: Fennell Observatory
(35.2597°N, 89.5125°W)
Time: 20:51:27
(UTC-06:00)

Daily predictions for brighter satellites

Satellite Brightness Start Highest point End
(mag) Time Altitude Azimuth Time Altitude Azimuth Time Altitude Azimuth
Cosmos 1295 Rocket 4.4 17:01:37 10° N 17:07:44 72° E 17:13:47 10° SSE
CZ-2C R/B 2.7 17:04:05 10° SE 17:08:47 47° ENE 17:13:40 10° N
Cosmos 1975 4.2 17:09:27 10° NNE 17:12:24 19° ENE 17:15:19 10° ESE
COSMOS 2406 3.3 17:06:51 10° NNW 17:12:36 88° ENE 17:18:21 10° SSE
Cosmos 2251 Rocket 4.0 17:09:24 10° N 17:14:25 40° ENE 17:19:22 10° SE
MOS 1 4.3 17:10:00 10° SSE 17:15:33 61° ENE 17:21:07 10° N
CRYOSAT 2 4.4 17:11:09 10° N 17:16:03 71° E 17:20:56 10° S
Cosmos 158 Rocket 4.1 17:13:41 10° NNW 17:19:03 85° WSW 17:24:16 10° SSE
SL-27 R/B 2.7 17:17:28 10° N 17:21:04 51° ENE 17:24:35 10° SSE
OE (NEXTSAT) 4.4 17:19:20 10° SW 17:22:54 78° SE 17:26:20 11° ENE
Meteor 1-5 Rocket 4.3 17:17:26 10° N 17:22:55 87° W 17:28:32 10° S
SL-8 R/B 3.9 17:21:21 10° WSW 17:26:06 69° NW 17:30:50 10° NE
Cosmos 1484 Rocket 3.8 17:24:57 10° SE 17:27:59 24° ENE 17:31:00 10° NNE
Cosmos 2082 Rocket 3.6 17:26:04 10° NNE 17:29:30 16° NE 17:32:58 10° E
Cosmos 1833 Rocket 4.2 17:28:10 10° NNE 17:31:03 14° NE 17:33:05 12° ENE
Cosmos 1544 Rocket 3.6 17:34:06 10° N 17:38:35 89° E 17:43:03 10° S
COSMO-SKYMED 1 2.9 17:35:53 10° NNE 17:40:01 43° E 17:44:08 10° S
Cosmos 1500 3.8 17:39:10 10° NNE 17:42:40 33° E 17:46:09 10° SE
Nadezhda 3 Rocket 4.2 17:40:51 10° SSE 17:46:41 46° E 17:52:35 10° NNE
Meteor 1-28 Rocket 4.2 17:45:29 17° NE 17:47:34 26° E 17:50:47 10° SSE
Cosmos 864 Rocket 4.5 17:44:12 10° N 17:50:31 85° E 17:56:50 10° S
NOSS 2-1 (E) 4.4 17:47:40 10° S 17:50:51 25° ESE 17:52:07 21° E
Cosmos 1536 Rocket 3.8 17:51:04 10° SSW 17:55:30 73° W 18:00:00 10° N
Tiangong 1 0.8 17:52:58 10° WSW 17:56:00 88° NNW 17:57:12 33° ENE
GEOS 3 Rocket 4.2 17:53:31 13° ESE 17:57:20 32° NE 18:01:50 10° NNW
OAO 1 4.5 17:52:08 10° W 17:57:38 89° S 18:01:18 22° E
Okean 1 3.7 17:57:12 10° SSW 18:01:13 67° W 18:05:16 10° N
YAOGAN 1 3.8 17:59:01 10° S 18:03:09 45° W 18:07:19 10° NNW
Cosmos 1812 4.2 18:01:30 10° SSW 18:05:06 38° W 18:08:44 10° N
Cosmos 1025 Rocket 3.8 18:03:35 10° SSE 18:07:21 29° E 18:07:27 29° E
ATLAS 3B CENTAUR R/B 4.2 17:48:31 10° WSW 18:10:02 59° S 18:15:57 19° ESE
COSMOS 2487 2.7 18:09:09 10° N 18:12:37 45° ENE 18:13:00 43° E
Cosmos 921 Rocket 3.0 18:08:35 10° S 18:12:42 56° ESE 18:14:34 30° NE
Meteor 2-21 Rocket 4.4 18:08:30 10° N 18:14:38 61° E 18:20:41 10° SSE
Cosmos 375 4.3 18:12:08 10° NNW 18:16:18 57° NE 18:17:40 35° ESE
Cosmos 1346 Rocket 3.1 18:13:14 10° SSW 18:17:07 64° W 18:20:57 10° N
Cosmos 1371 Rocket 4.4 18:13:38 10° S 18:18:38 42° ESE 18:20:09 34° ENE
Meteor 2-16 Rocket 4.5 18:12:50 10° N 18:18:46 53° E 18:24:40 10° SSE
IDEFIX/ARIANE 42P 4.5 18:19:44 10° SSW 18:24:18 31° W 18:28:52 10° NW
SKYMED 2 4.5 18:23:54 10° N 18:28:05 49° WNW 18:32:15 10° SSW
Okean 1-7 Rocket 3.5 18:24:36 10° S 18:29:08 89° W 18:32:12 20° N
Cosmos 2297 3.8 18:25:27 10° SSW 18:31:05 76° WNW 18:35:04 20° NNE
Intercosmos 25 3.8 18:33:03 38° S 18:33:03 38° S 18:35:20 10° S
ATLAS 2AS CENTAUR R/B 3.7 18:29:58 10° NW 18:37:38 53° WSW 18:44:43 10° S
Delta 2 Rocket 3.2 18:33:58 10° WSW 18:37:53 77° SSE 18:38:03 75° SE
OTV 4 3.2 18:40:18 10° WSW 18:42:06 15° SSW 18:42:43 14° SSW
Cosmos 2278 Rocket 4.1 18:40:54 10° WSW 18:45:36 27° WNW 18:50:20 10° N
Cosmos 1535 Rocket 4.3 18:40:28 10° N 18:46:48 79° E 18:52:59 10° S
Cosmos 1934 Rocket 3.9 18:41:17 10° N 18:47:25 62° E 18:53:37 10° SSE
Timation 2 Rocket 4.1 18:51:12 10° NNW 18:58:05 85° WSW 19:04:57 10° SSE
Meteor 2-8 Rocket 4.4 19:06:22 10° S 19:12:25 77° W 19:14:09 49° N
Cosmos 1821 Rocket 4.2 19:06:40 10° NNW 19:12:41 64° W 19:18:41 10° S
Cosmos 2082 Rocket 2.4 19:08:28 10° NNW 19:14:05 67° WSW 19:15:50 44° S
Cosmos 1833 Rocket 2.8 19:09:57 10° NNW 19:14:56 68° NW 19:14:56 68° NW
FALCON 9 R/B 3.8 20:06:07 10° W 20:15:38 44° W 20:15:38 44° W
